Location: Clarks Summit,Pa.
(41.5000°N, 75.6000°W)
Time: 21:18:49
(UTC-05:00)

N. Korean satellite - Visible Passes

Search period start: 20 November 2018 00:00
Search period end: 30 November 2018 00:00
Orbit: 456 x 511 km, 97.2° (Epoch: 20 November)

Date Brightness Start Highest point End Pass type
(mag) Time Alt. Az. Time Alt. Az. Time Alt. Az.
20 Nov 6.8 06:17:40 10° NNE 06:21:06 70° E 06:24:31 10° S visible
20 Nov 9.6 18:27:48 10° SW 18:30:20 18° W 18:32:51 10° NW visible
21 Nov 8.6 05:53:26 10° NNE 05:56:32 31° E 05:59:38 10° SSE visible
21 Nov 8.3 18:02:23 10° SSW 18:05:43 36° W 18:09:01 10° NNW visible
22 Nov 9.8 05:29:45 10° NE 05:31:53 16° E 05:34:02 10° SE visible
22 Nov 6.6 17:37:36 10° S 17:41:10 80° WSW 17:44:43 10° NNW visible
23 Nov 6.8 17:13:16 10° SSE 17:16:42 46° ENE 17:20:05 10° N visible
23 Nov 10.3 18:50:17 10° W 18:50:24 10° W 18:50:30 10° W visible
24 Nov 7.1 06:13:02 10° NNE 06:16:28 61° E 06:19:52 10° S visible
24 Nov 9.4 18:23:01 10° SW 18:25:41 20° W 18:28:22 10° NW visible
25 Nov 8.8 05:48:52 10° NE 05:51:52 27° E 05:54:53 10° SSE visible
25 Nov 7.9 17:57:42 10° S 18:01:04 40° W 18:04:24 10° NNW visible
26 Nov 9.9 05:25:20 10° ENE 05:27:12 14° E 05:29:05 10° SE visible
26 Nov 6.5 17:32:59 10° SSE 17:36:31 89° ENE 17:40:02 10° NNW visible
27 Nov 6.9 17:08:44 10° SE 17:12:03 40° ENE 17:15:20 10° N visible
27 Nov 10.1 18:44:33 10° WSW 18:45:41 11° W 18:46:50 10° WNW visible
28 Nov 7.4 06:08:22 10° NNE 06:11:47 52° E 06:15:10 10° S visible
28 Nov 9.2 18:18:11 10° SSW 18:20:59 22° W 18:23:47 10° NW visible
29 Nov 9.1 05:44:16 10° NE 05:47:10 24° E 05:50:04 10° SSE visible
29 Nov 7.6 17:52:58 10° S 17:56:22 46° W 17:59:44 10° NNW visible
